Year,Month,Day,Hour,Minute,Value (Times are PST for temperature in C)
2018,01,29,00,00,8.20
2018,01,29,00,01,8.20
2018,01,29,00,02,8.30
2018,01,29,00,03,8.30
2018,01,29,00,04,8.30
2018,01,29,00,05,8.30
2018,01,29,00,06,8.30
2018,01,29,00,07,8.30
2018,01,29,00,08,8.30
2018,01,29,00,09,8.30
2018,01,29,00,10,8.30
2018,01,29,00,11,8.30
2018,01,29,00,12,8.30
2018,01,29,00,13,8.30
2018,01,29,00,14,8.30
2018,01,29,00,15,8.30
2018,01,29,00,16,8.30
2018,01,29,00,17,8.30
2018,01,29,00,18,8.30
2018,01,29,00,19,8.30
2018,01,29,00,20,8.30
2018,01,29,00,21,8.30
2018,01,29,00,22,8.30
2018,01,29,00,23,8.30
2018,01,29,00,24,8.30
2018,01,29,00,25,8.30
2018,01,29,00,26,8.30
2018,01,29,00,27,8.30
2018,01,29,00,28,8.30
2018,01,29,00,29,8.30
2018,01,29,00,30,8.30
2018,01,29,00,31,8.30
2018,01,29,00,32,8.30
2018,01,29,00,33,8.30
2018,01,29,00,34,8.30
2018,01,29,00,35,8.30
2018,01,29,00,36,8.30
2018,01,29,00,37,8.20
2018,01,29,00,38,8.20
2018,01,29,00,39,8.20
2018,01,29,00,40,8.20
2018,01,29,00,41,8.20
2018,01,29,00,42,8.20
2018,01,29,00,43,8.20
2018,01,29,00,44,8.20
2018,01,29,00,45,8.20
2018,01,29,00,46,8.20
2018,01,29,00,47,8.20
2018,01,29,00,48,8.20
2018,01,29,00,49,8.20
2018,01,29,00,50,8.20
2018,01,29,00,51,8.20
2018,01,29,00,52,8.20
2018,01,29,00,53,8.20
2018,01,29,00,54,8.20
2018,01,29,00,55,8.20
2018,01,29,00,56,8.20
2018,01,29,00,57,8.20
2018,01,29,00,58,8.20
2018,01,29,00,59,8.20
2018,01,29,01,00,8.20
2018,01,29,01,01,8.20
2018,01,29,01,02,8.20
2018,01,29,01,03,8.20
2018,01,29,01,04,8.20
2018,01,29,01,05,8.20
2018,01,29,01,06,8.20
2018,01,29,01,07,8.20
2018,01,29,01,08,8.20
2018,01,29,01,09,8.20
2018,01,29,01,10,8.20
2018,01,29,01,11,8.20
2018,01,29,01,12,8.20
2018,01,29,01,13,8.20
2018,01,29,01,14,8.20
2018,01,29,01,15,8.30
2018,01,29,01,16,8.30
2018,01,29,01,17,8.30
2018,01,29,01,18,8.30
2018,01,29,01,19,8.30
2018,01,29,01,20,8.40
2018,01,29,01,21,8.40
2018,01,29,01,22,8.40
2018,01,29,01,23,8.40
2018,01,29,01,24,8.40
2018,01,29,01,25,8.40
2018,01,29,01,26,8.50
2018,01,29,01,27,8.50
2018,01,29,01,28,8.50
2018,01,29,01,29,8.50
2018,01,29,01,30,8.50
2018,01,29,01,31,8.50
2018,01,29,01,32,8.50
2018,01,29,01,33,8.50
2018,01,29,01,34,8.50
2018,01,29,01,35,8.50
2018,01,29,01,36,8.50
2018,01,29,01,37,8.50
2018,01,29,01,38,8.50
2018,01,29,01,39,8.50
2018,01,29,01,40,8.50
2018,01,29,01,41,8.60
2018,01,29,01,42,8.60
2018,01,29,01,43,8.60
2018,01,29,01,44,8.60
2018,01,29,01,45,8.60
2018,01,29,01,46,8.70
2018,01,29,01,47,8.70
2018,01,29,01,48,8.70
2018,01,29,01,49,8.70
2018,01,29,01,50,8.70
2018,01,29,01,51,8.70
2018,01,29,01,52,8.70
2018,01,29,01,53,8.80
2018,01,29,01,54,8.80
2018,01,29,01,55,8.80
2018,01,29,01,56,8.90
2018,01,29,01,57,8.90
2018,01,29,01,58,8.90
2018,01,29,01,59,8.90
2018,01,29,02,00,9.00
2018,01,29,02,01,9.00
2018,01,29,02,02,9.00
2018,01,29,02,03,9.00
2018,01,29,02,04,9.00
2018,01,29,02,05,9.00
2018,01,29,02,06,9.00
2018,01,29,02,07,9.10
2018,01,29,02,08,9.10
2018,01,29,02,09,9.10
2018,01,29,02,10,9.10
2018,01,29,02,11,9.00
2018,01,29,02,12,9.00
2018,01,29,02,13,9.00
2018,01,29,02,14,9.00
2018,01,29,02,15,9.00
2018,01,29,02,16,9.00
2018,01,29,02,17,9.00
2018,01,29,02,18,9.00
2018,01,29,02,19,9.00
2018,01,29,02,20,9.00
2018,01,29,02,21,9.00
2018,01,29,02,22,9.00
2018,01,29,02,23,8.90
2018,01,29,02,24,8.90
2018,01,29,02,25,8.90
2018,01,29,02,26,8.90
2018,01,29,02,27,8.90
2018,01,29,02,28,8.90
2018,01,29,02,29,8.90
2018,01,29,02,30,8.90
2018,01,29,02,31,8.90
2018,01,29,02,32,8.90
2018,01,29,02,33,8.80
2018,01,29,02,34,8.80
2018,01,29,02,35,8.80
2018,01,29,02,36,8.80
2018,01,29,02,37,8.80
2018,01,29,02,38,8.80
2018,01,29,02,39,8.80
2018,01,29,02,40,8.80
2018,01,29,02,41,8.80
2018,01,29,02,42,8.80
2018,01,29,02,43,8.80
2018,01,29,02,44,8.80
2018,01,29,02,45,8.80
2018,01,29,02,46,8.80
2018,01,29,02,47,8.80
2018,01,29,02,48,8.70
2018,01,29,02,49,8.70
2018,01,29,02,50,8.70
2018,01,29,02,51,8.70
2018,01,29,02,52,8.70
2018,01,29,02,53,8.70
2018,01,29,02,54,8.70
2018,01,29,02,55,8.80
2018,01,29,02,56,8.80
2018,01,29,02,57,8.70
2018,01,29,02,58,8.70
2018,01,29,02,59,8.70
2018,01,29,03,00,8.70
2018,01,29,03,01,8.70
2018,01,29,03,02,8.70
2018,01,29,03,03,8.70
2018,01,29,03,04,8.70
2018,01,29,03,05,8.70
2018,01,29,03,06,8.70
2018,01,29,03,07,8.70
2018,01,29,03,08,8.70
2018,01,29,03,09,8.70
2018,01,29,03,10,8.70
2018,01,29,03,11,8.70
2018,01,29,03,12,8.70
2018,01,29,09,25,9.00
2018,01,29,09,26,9.00
2018,01,29,09,27,8.90
2018,01,29,09,28,8.90
2018,01,29,09,29,8.90
2018,01,29,09,30,8.90
2018,01,29,09,31,8.90
2018,01,29,09,32,8.90
2018,01,29,09,33,9.00
2018,01,29,09,34,9.00
2018,01,29,09,35,9.00
2018,01,29,09,36,9.00
2018,01,29,09,37,9.00
2018,01,29,09,38,9.00
2018,01,29,09,39,9.00
2018,01,29,09,40,9.00
2018,01,29,09,41,9.10
2018,01,29,09,42,9.10
2018,01,29,09,43,9.10
2018,01,29,09,44,9.10
2018,01,29,09,45,9.10
2018,01,29,09,46,9.10
2018,01,29,09,47,9.10
2018,01,29,09,48,9.10
2018,01,29,09,49,9.10
2018,01,29,09,50,9.10
2018,01,29,09,51,9.10
2018,01,29,09,52,9.20
2018,01,29,09,53,9.20
2018,01,29,09,54,9.20
2018,01,29,09,55,9.20
2018,01,29,09,56,9.20
2018,01,29,09,57,9.20
2018,01,29,09,58,9.20
2018,01,29,09,59,9.20
2018,01,29,10,00,9.30
2018,01,29,10,01,9.30
2018,01,29,10,02,9.30
2018,01,29,10,03,9.30
2018,01,29,10,04,9.30
2018,01,29,10,05,9.30
2018,01,29,10,06,9.30
2018,01,29,10,07,9.30
2018,01,29,10,08,9.30
2018,01,29,10,09,9.30
2018,01,29,10,10,9.30
2018,01,29,10,11,9.30
2018,01,29,10,12,9.30
2018,01,29,10,13,9.30
2018,01,29,10,14,9.30
2018,01,29,10,15,9.30
2018,01,29,10,16,9.30
2018,01,29,10,17,9.30
2018,01,29,10,18,9.30
2018,01,29,10,19,9.30
2018,01,29,10,20,9.30
2018,01,29,10,21,9.30
2018,01,29,10,22,9.30
2018,01,29,10,23,9.40
2018,01,29,10,24,9.40
2018,01,29,10,25,9.40
2018,01,29,10,26,9.40
2018,01,29,10,27,9.50
2018,01,29,10,28,9.50
2018,01,29,10,29,9.50
2018,01,29,10,30,9.50
2018,01,29,10,31,9.50
2018,01,29,10,32,9.50
2018,01,29,10,33,9.50
2018,01,29,10,34,9.50
2018,01,29,10,35,9.50
2018,01,29,10,36,9.50
2018,01,29,10,37,9.50
2018,01,29,10,38,9.50
2018,01,29,10,39,9.50
2018,01,29,10,40,9.50
2018,01,29,10,41,9.50
2018,01,29,10,42,9.50
2018,01,29,10,43,9.50
2018,01,29,10,44,9.50
2018,01,29,10,45,9.50
2018,01,29,10,46,9.50
2018,01,29,10,47,9.50
2018,01,29,10,48,9.50
2018,01,29,10,49,9.50
2018,01,29,10,50,9.60
2018,01,29,10,51,9.60
2018,01,29,10,52,9.60
2018,01,29,10,53,9.60
2018,01,29,10,54,9.60
2018,01,29,10,55,9.60
2018,01,29,10,56,9.70
2018,01,29,10,57,9.70
2018,01,29,10,58,9.70
2018,01,29,10,59,9.70
2018,01,29,11,00,9.70
2018,01,29,11,01,9.70
2018,01,29,11,02,9.70
2018,01,29,11,03,9.70
2018,01,29,11,04,9.70
2018,01,29,11,05,9.70
2018,01,29,11,06,9.70
2018,01,29,11,07,9.70
2018,01,29,11,08,9.70
2018,01,29,11,09,9.70
2018,01,29,11,10,9.70
2018,01,29,11,11,9.70
2018,01,29,11,12,9.70
2018,01,29,11,13,9.70
2018,01,29,11,14,9.70
2018,01,29,11,15,9.70
2018,01,29,11,16,9.70
2018,01,29,11,17,9.80
2018,01,29,11,18,9.80
2018,01,29,11,19,9.80
2018,01,29,11,20,9.80
2018,01,29,11,21,9.80
2018,01,29,11,22,9.80
2018,01,29,11,23,9.80
2018,01,29,11,24,9.70
2018,01,29,11,25,9.70
2018,01,29,11,26,9.70
2018,01,29,11,27,9.70
2018,01,29,11,28,9.80
2018,01,29,11,29,9.80
2018,01,29,11,30,9.80
2018,01,29,11,31,9.80
2018,01,29,11,32,9.70
2018,01,29,11,33,9.70
2018,01,29,11,34,9.70
2018,01,29,11,35,9.70
2018,01,29,11,36,9.70
2018,01,29,11,37,9.70
2018,01,29,11,38,9.70
2018,01,29,11,39,9.70
2018,01,29,11,40,9.70
2018,01,29,11,41,9.70
2018,01,29,11,42,9.70
2018,01,29,11,43,9.70
2018,01,29,11,44,9.70
2018,01,29,11,45,9.70
2018,01,29,11,46,9.70
2018,01,29,11,47,9.70
2018,01,29,11,48,9.70
2018,01,29,11,49,9.70
2018,01,29,11,50,9.70
2018,01,29,11,51,9.70
2018,01,29,11,52,9.70
2018,01,29,11,53,9.70
2018,01,29,11,54,9.70
2018,01,29,11,55,9.70
2018,01,29,11,56,9.70
2018,01,29,11,57,9.70
2018,01,29,11,58,9.70
2018,01,29,11,59,9.70
2018,01,29,12,00,9.70
2018,01,29,12,01,9.70
2018,01,29,12,02,9.70
2018,01,29,12,03,9.70
2018,01,29,12,04,9.70
2018,01,29,12,05,9.70
2018,01,29,12,06,9.70
2018,01,29,12,07,9.70
2018,01,29,12,08,9.70
2018,01,29,12,09,9.70
2018,01,29,12,10,9.70
2018,01,29,12,11,9.70
2018,01,29,12,12,9.70
2018,01,29,12,13,9.70
2018,01,29,12,14,9.70
2018,01,29,12,15,9.70
2018,01,29,12,16,9.70
2018,01,29,12,17,9.70
2018,01,29,12,18,9.70
2018,01,29,12,19,9.70
2018,01,29,12,20,9.80
2018,01,29,12,21,9.80
2018,01,29,12,22,9.90
2018,01,29,12,23,9.90
2018,01,29,12,24,9.90
2018,01,29,12,25,9.90
2018,01,29,12,26,10.00
2018,01,29,12,27,10.10
2018,01,29,12,28,10.10
2018,01,29,12,29,10.10
2018,01,29,12,30,10.10
2018,01,29,12,31,10.10
2018,01,29,12,32,10.10
2018,01,29,12,33,10.10
2018,01,29,12,34,10.10
2018,01,29,12,35,10.10
2018,01,29,12,36,10.10
2018,01,29,12,37,10.10
2018,01,29,12,38,10.10
2018,01,29,12,39,10.10
2018,01,29,12,40,10.10
2018,01,29,12,41,10.10
2018,01,29,12,42,10.10
2018,01,29,12,43,10.10
2018,01,29,12,44,10.10
2018,01,29,12,45,10.10
2018,01,29,12,46,10.10
2018,01,29,12,47,10.10
2018,01,29,12,48,10.10
2018,01,29,12,49,10.10
2018,01,29,12,50,10.00
2018,01,29,12,51,9.90
2018,01,29,12,52,9.90
2018,01,29,12,53,9.80
2018,01,29,12,54,9.70
2018,01,29,12,55,9.60
2018,01,29,12,56,9.50
2018,01,29,12,57,9.50
2018,01,29,12,58,9.40
2018,01,29,12,59,9.30
2018,01,29,13,00,9.20
2018,01,29,13,01,9.20
2018,01,29,13,02,9.20
2018,01,29,13,03,9.20
2018,01,29,13,04,9.20
2018,01,29,13,05,9.20
2018,01,29,13,06,9.20
2018,01,29,13,07,9.20
2018,01,29,13,08,9.20
2018,01,29,13,09,9.20
2018,01,29,13,10,9.20
2018,01,29,13,11,9.10
2018,01,29,13,12,9.10
2018,01,29,13,13,9.10
2018,01,29,13,14,9.10
2018,01,29,13,15,9.10
2018,01,29,13,16,9.10
2018,01,29,13,17,9.10
2018,01,29,13,18,9.10
2018,01,29,13,19,9.10
2018,01,29,13,20,9.10
2018,01,29,13,21,9.10
2018,01,29,13,22,9.10
2018,01,29,13,23,9.10
2018,01,29,13,24,9.10
2018,01,29,13,25,9.10
2018,01,29,13,26,9.20
2018,01,29,13,27,9.20
2018,01,29,13,28,9.20
2018,01,29,13,29,9.20
2018,01,29,13,30,9.20
2018,01,29,13,31,9.20
2018,01,29,13,32,9.20
2018,01,29,13,33,9.20
2018,01,29,13,34,9.10
2018,01,29,13,35,9.00
2018,01,29,13,36,9.00
2018,01,29,13,37,8.90
2018,01,29,13,38,8.90
2018,01,29,13,39,8.80
2018,01,29,13,40,8.80
2018,01,29,13,41,8.70
2018,01,29,13,42,8.70
2018,01,29,13,43,8.60
2018,01,29,13,44,8.60
2018,01,29,13,45,8.60
2018,01,29,13,46,8.60
2018,01,29,13,47,8.50
2018,01,29,13,48,8.50
2018,01,29,13,49,8.50
2018,01,29,13,50,8.40
2018,01,29,13,51,8.40
2018,01,29,13,52,8.30
2018,01,29,13,53,8.20
2018,01,29,13,54,8.20
2018,01,29,13,55,8.20
2018,01,29,13,56,8.20
2018,01,29,13,57,8.10
2018,01,29,13,58,8.10
2018,01,29,13,59,8.00
2018,01,29,14,00,8.00
2018,01,29,14,01,8.00
2018,01,29,14,02,7.90
2018,01,29,14,03,7.90
2018,01,29,14,04,7.90
2018,01,29,14,05,7.90
2018,01,29,14,06,7.80
2018,01,29,14,07,7.80
2018,01,29,14,08,7.80
2018,01,29,14,09,7.80
2018,01,29,14,10,7.80
2018,01,29,14,11,7.80
2018,01,29,14,12,7.80
2018,01,29,14,13,7.80
2018,01,29,14,14,7.80
2018,01,29,14,15,7.80
2018,01,29,14,16,7.80
2018,01,29,14,17,7.70
2018,01,29,14,18,7.70
2018,01,29,14,19,7.70
2018,01,29,14,20,7.60
2018,01,29,14,21,7.60
2018,01,29,14,22,7.60
2018,01,29,14,23,7.60
2018,01,29,14,24,7.60
2018,01,29,14,25,7.60
2018,01,29,14,26,7.50
2018,01,29,14,27,7.50
2018,01,29,14,28,7.50
2018,01,29,14,29,7.40
2018,01,29,14,30,7.30
2018,01,29,14,31,7.30
2018,01,29,14,32,7.30
2018,01,29,14,33,7.20
2018,01,29,14,34,7.20
2018,01,29,14,35,7.10
2018,01,29,14,36,7.10
2018,01,29,14,37,7.00
2018,01,29,14,38,7.00
2018,01,29,14,39,7.00
2018,01,29,14,40,6.90
2018,01,29,14,41,6.80
2018,01,29,14,42,6.80
2018,01,29,14,43,6.80
2018,01,29,14,44,6.70
2018,01,29,14,45,6.70
2018,01,29,14,46,6.60
2018,01,29,14,47,6.60
2018,01,29,14,48,6.60
2018,01,29,14,49,6.50
2018,01,29,14,50,6.40
2018,01,29,14,51,6.40
2018,01,29,14,52,6.40
2018,01,29,14,53,6.40
2018,01,29,14,54,6.40
2018,01,29,14,55,6.40
2018,01,29,14,56,6.40
2018,01,29,14,57,6.40
2018,01,29,14,58,6.40
2018,01,29,14,59,6.40
2018,01,29,15,00,6.40
2018,01,29,15,01,6.40
2018,01,29,15,02,6.40
2018,01,29,15,03,6.40
2018,01,29,15,04,6.40
2018,01,29,15,05,6.40
2018,01,29,15,06,6.40
2018,01,29,15,07,6.40
2018,01,29,15,08,6.40
2018,01,29,15,09,6.40
2018,01,29,15,10,6.40
2018,01,29,15,11,6.40
2018,01,29,15,12,6.40
2018,01,29,15,13,6.40
2018,01,29,15,14,6.40
2018,01,29,15,15,6.40
2018,01,29,15,16,6.40
2018,01,29,15,17,6.40
2018,01,29,15,18,6.40
2018,01,29,15,19,6.40
2018,01,29,15,20,6.50
2018,01,29,15,21,6.60
2018,01,29,15,22,6.60
2018,01,29,15,23,6.60
2018,01,29,15,24,6.60
2018,01,29,15,25,6.60
2018,01,29,15,26,6.60
2018,01,29,15,27,6.60
2018,01,29,15,28,6.60
2018,01,29,15,29,6.60
2018,01,29,15,30,6.60
2018,01,29,15,31,6.60
2018,01,29,15,32,6.60
2018,01,29,15,33,6.60
2018,01,29,15,34,6.60
2018,01,29,15,35,6.60
2018,01,29,15,36,6.60
2018,01,29,15,37,6.60
2018,01,29,15,38,6.60
2018,01,29,15,39,6.60
2018,01,29,15,40,6.60
2018,01,29,15,41,6.60
2018,01,29,15,42,6.60
2018,01,29,15,43,6.60
2018,01,29,15,44,6.60
2018,01,29,15,45,6.60
2018,01,29,15,46,6.60
2018,01,29,15,47,6.60
2018,01,29,15,48,6.60
2018,01,29,15,49,6.60
2018,01,29,15,50,6.60
2018,01,29,15,51,6.60
2018,01,29,15,52,6.60
2018,01,29,15,53,6.60
2018,01,29,15,54,6.60
2018,01,29,15,55,6.60
2018,01,29,15,56,6.60
2018,01,29,15,57,6.60
2018,01,29,15,58,6.60
2018,01,29,15,59,6.60
2018,01,29,16,00,6.60
2018,01,29,16,01,6.60
2018,01,29,16,02,6.60
2018,01,29,16,03,6.60
2018,01,29,16,04,6.60
2018,01,29,16,05,6.60
2018,01,29,16,06,6.60
2018,01,29,16,07,6.60
2018,01,29,16,08,6.60
2018,01,29,16,09,6.70
2018,01,29,16,10,6.70
2018,01,29,16,11,6.70
2018,01,29,16,12,6.70
2018,01,29,16,13,6.70
2018,01,29,16,14,6.70
2018,01,29,16,15,6.70
2018,01,29,16,16,6.70
2018,01,29,16,17,6.80
2018,01,29,16,18,6.80
2018,01,29,16,19,6.80
2018,01,29,16,20,6.80
2018,01,29,16,21,6.80
2018,01,29,16,22,6.80
2018,01,29,16,23,6.80
2018,01,29,16,24,6.80
2018,01,29,16,25,6.80
2018,01,29,16,26,6.80
2018,01,29,16,27,6.80
2018,01,29,16,28,6.80
2018,01,29,16,29,6.80
2018,01,29,16,30,6.80
2018,01,29,16,31,6.80
2018,01,29,16,32,6.80
2018,01,29,16,33,6.80
2018,01,29,16,34,6.80
2018,01,29,16,35,6.80
2018,01,29,16,36,6.80
2018,01,29,16,37,6.80
2018,01,29,16,38,6.80
2018,01,29,16,39,6.80
2018,01,29,16,40,6.80
2018,01,29,16,41,6.80
2018,01,29,16,42,6.80
2018,01,29,16,43,6.80
2018,01,29,16,44,6.80
2018,01,29,16,45,6.80
2018,01,29,16,46,6.80
2018,01,29,16,47,6.80
2018,01,29,16,48,6.80
2018,01,29,16,49,6.80
2018,01,29,16,50,6.80
2018,01,29,16,51,6.80
2018,01,29,16,52,6.80
2018,01,29,16,53,6.80
2018,01,29,16,54,6.70
2018,01,29,16,55,6.70
2018,01,29,16,56,6.70
2018,01,29,16,57,6.70
2018,01,29,16,58,6.70
2018,01,29,16,59,6.70
2018,01,29,17,00,6.60
2018,01,29,17,01,6.60
2018,01,29,17,02,6.60
2018,01,29,17,03,6.60
2018,01,29,17,04,6.60
2018,01,29,17,05,6.40
2018,01,29,17,06,6.40
2018,01,29,17,07,6.40
2018,01,29,17,08,6.40
2018,01,29,17,09,6.40
2018,01,29,17,10,6.30
2018,01,29,17,11,6.30
2018,01,29,17,12,6.30
2018,01,29,17,13,6.30
2018,01,29,17,14,6.20
2018,01,29,17,15,6.20
2018,01,29,17,16,6.20
2018,01,29,17,17,6.20
2018,01,29,17,18,6.20
2018,01,29,17,19,6.20
2018,01,29,17,20,6.20
2018,01,29,17,21,6.20
2018,01,29,17,22,6.20
2018,01,29,17,23,6.20
2018,01,29,17,24,6.20
2018,01,29,17,25,6.20
2018,01,29,17,26,6.30
2018,01,29,17,27,6.30
2018,01,29,17,28,6.30
2018,01,29,17,29,6.30
2018,01,29,17,30,6.30
2018,01,29,17,31,6.40
2018,01,29,17,32,6.40
2018,01,29,17,33,6.40
2018,01,29,17,34,6.40
2018,01,29,17,35,6.40
2018,01,29,17,36,6.40
2018,01,29,17,37,6.40
2018,01,29,17,38,6.40
2018,01,29,17,39,6.40
2018,01,29,17,40,6.40
2018,01,29,17,41,6.40
2018,01,29,17,42,6.40
2018,01,29,17,43,6.40
2018,01,29,17,44,6.50
2018,01,29,17,45,6.60
2018,01,29,17,46,6.60
2018,01,29,17,47,6.60
2018,01,29,17,48,6.60
2018,01,29,17,49,6.60
2018,01,29,17,50,6.60
2018,01,29,17,51,6.50
2018,01,29,17,52,6.40
2018,01,29,17,53,6.30
2018,01,29,17,54,6.20
2018,01,29,17,55,6.20
2018,01,29,17,56,6.10
2018,01,29,17,57,6.00
2018,01,29,17,58,6.00
2018,01,29,17,59,5.90
2018,01,29,18,00,5.90
2018,01,29,18,01,5.80
2018,01,29,18,02,5.80
2018,01,29,18,03,5.70
2018,01,29,18,04,5.70
2018,01,29,18,05,5.70
2018,01,29,18,06,5.70
2018,01,29,18,07,5.70
2018,01,29,18,08,5.70
2018,01,29,18,09,5.70
2018,01,29,18,10,5.70
2018,01,29,18,11,5.70
2018,01,29,18,12,5.70
2018,01,29,18,13,5.70
2018,01,29,18,14,5.70
2018,01,29,18,15,5.80
2018,01,29,18,16,5.80
2018,01,29,18,17,5.80
2018,01,29,18,18,5.80
2018,01,29,18,19,5.80
2018,01,29,18,20,5.80
2018,01,29,18,21,5.80
2018,01,29,18,22,5.80
2018,01,29,18,23,5.80
2018,01,29,18,24,5.80
2018,01,29,18,25,5.80
2018,01,29,18,26,5.80
2018,01,29,18,27,5.80
2018,01,29,18,28,5.80
2018,01,29,18,29,5.80
2018,01,29,18,30,5.80
2018,01,29,18,31,5.70
2018,01,29,18,32,5.70
2018,01,29,18,33,5.70
2018,01,29,18,34,5.70
2018,01,29,18,35,5.70
2018,01,29,18,36,5.70
2018,01,29,18,37,5.70
2018,01,29,18,38,5.70
2018,01,29,18,39,5.70
2018,01,29,18,40,5.70
2018,01,29,18,41,5.70
2018,01,29,18,42,5.70
2018,01,29,18,43,5.70
2018,01,29,18,44,5.70
2018,01,29,18,45,5.70
2018,01,29,18,46,5.70
2018,01,29,18,47,5.70
2018,01,29,18,48,5.70
2018,01,29,18,49,5.70
2018,01,29,18,50,5.70
2018,01,29,18,51,5.70
2018,01,29,18,52,5.70
2018,01,29,18,53,5.70
2018,01,29,18,54,5.70
2018,01,29,18,55,5.70
2018,01,29,18,56,5.70
2018,01,29,18,57,5.70
2018,01,29,18,58,5.70
2018,01,29,18,59,5.70
2018,01,29,19,00,5.70
2018,01,29,19,01,5.60
2018,01,29,19,02,5.60
2018,01,29,19,03,5.60
2018,01,29,19,04,5.60
2018,01,29,19,05,5.60
2018,01,29,19,06,5.60
2018,01,29,19,07,5.60
2018,01,29,19,08,5.60
2018,01,29,19,09,5.60
2018,01,29,19,10,5.60
2018,01,29,19,11,5.60
2018,01,29,19,12,5.70
2018,01,29,19,13,5.70
2018,01,29,19,14,5.70
2018,01,29,19,15,5.70
2018,01,29,19,16,5.70
2018,01,29,19,17,5.70
2018,01,29,19,18,5.70
2018,01,29,19,19,5.70
2018,01,29,19,20,5.70
2018,01,29,19,21,5.70
2018,01,29,19,22,5.70
2018,01,29,19,23,5.70
2018,01,29,19,24,5.70
2018,01,29,19,25,5.70
2018,01,29,19,26,5.70
2018,01,29,19,27,5.80
2018,01,29,19,28,5.80
2018,01,29,19,29,5.80
2018,01,29,19,30,5.80
2018,01,29,19,31,5.90
2018,01,29,19,32,5.90
2018,01,29,19,33,5.90
2018,01,29,19,34,5.90
2018,01,29,19,35,5.90
2018,01,29,19,36,6.00
2018,01,29,19,37,6.00
2018,01,29,19,38,6.00
2018,01,29,19,39,6.00
2018,01,29,19,40,6.00
2018,01,29,19,41,6.00
2018,01,29,19,42,6.00
2018,01,29,19,43,6.00
2018,01,29,19,44,6.00
2018,01,29,19,45,6.10
2018,01,29,19,46,6.10
2018,01,29,19,47,6.10
2018,01,29,19,48,6.10
2018,01,29,19,49,6.10
2018,01,29,19,50,6.10
2018,01,29,19,51,6.10
2018,01,29,19,52,6.10
2018,01,29,19,53,6.10
2018,01,29,19,54,6.10
2018,01,29,19,55,6.10
2018,01,29,19,56,6.10
2018,01,29,19,57,6.10
2018,01,29,19,58,6.10
2018,01,29,19,59,6.10
2018,01,29,20,00,6.10
2018,01,29,20,01,6.10
2018,01,29,20,02,6.10
2018,01,29,20,03,6.10
2018,01,29,20,04,6.10
2018,01,29,20,05,6.10
2018,01,29,20,06,6.10
2018,01,29,20,07,6.10
2018,01,29,20,08,6.10
2018,01,29,20,09,6.10
2018,01,29,20,10,6.10
2018,01,29,20,11,6.10
2018,01,29,20,12,6.10
2018,01,29,20,13,6.10
2018,01,29,20,14,6.10
2018,01,29,20,15,6.10
2018,01,29,20,16,6.20
2018,01,29,20,17,6.20
2018,01,29,20,18,6.20
2018,01,29,20,19,6.20
2018,01,29,20,20,6.20
2018,01,29,20,21,6.20
2018,01,29,20,22,6.20
2018,01,29,20,23,6.20
2018,01,29,20,24,6.20
2018,01,29,20,25,6.20
2018,01,29,20,26,6.20
2018,01,29,20,27,6.20
2018,01,29,20,28,6.20
2018,01,29,20,29,6.20
2018,01,29,20,30,6.20
2018,01,29,20,31,6.20
2018,01,29,20,32,6.20
2018,01,29,20,33,6.20
2018,01,29,20,34,6.20
2018,01,29,20,35,6.20
2018,01,29,20,36,6.30
2018,01,29,20,37,6.30
2018,01,29,20,38,6.30
2018,01,29,20,39,6.30
2018,01,29,20,40,6.30
2018,01,29,20,41,6.30
2018,01,29,20,42,6.30
2018,01,29,20,43,6.30
2018,01,29,20,44,6.30
2018,01,29,20,45,6.30
2018,01,29,20,46,6.30
2018,01,29,20,47,6.30
2018,01,29,20,48,6.30
2018,01,29,20,49,6.30
2018,01,29,20,50,6.30
2018,01,29,20,51,6.30
2018,01,29,20,52,6.30
2018,01,29,20,53,6.30
2018,01,29,20,54,6.40
2018,01,29,20,55,6.40
2018,01,29,20,56,6.40
2018,01,29,20,57,6.40
2018,01,29,20,58,6.40
2018,01,29,20,59,6.40
2018,01,29,21,00,6.40
2018,01,29,21,01,6.40
2018,01,29,21,02,6.40
2018,01,29,21,03,6.40
2018,01,29,21,04,6.40
2018,01,29,21,05,6.40
2018,01,29,21,06,6.40
2018,01,29,21,07,6.40
2018,01,29,21,08,6.40
2018,01,29,21,09,6.40
2018,01,29,21,10,6.40
2018,01,29,21,11,6.40
2018,01,29,21,12,6.40
2018,01,29,21,13,6.40
2018,01,29,21,14,6.40
2018,01,29,21,15,6.40
